�������l�o���
Date,Time,MP-1(��Sv/h),MP-2(��Sv/h),MP-3(��Sv/h),MP-4(��Sv/h),MP-5(��Sv/h),MP-6(��Sv/h),MP-7(��Sv/h),MP-8(��Sv/h),����,����(m/s),���J
2020/04/30,00:00,0.698,1.006,0.660,1.215,0.871,0.398,0.695,0.658,��,5.9,��
2020/04/30,00:10,0.696,1.004,0.661,1.214,0.870,0.400,0.697,0.658,��,5.6,��
2020/04/30,00:20,0.697,1.004,0.661,1.214,0.867,0.398,0.696,0.658,��,6.6,��
2020/04/30,00:30,0.696,1.007,0.660,1.213,0.870,0.399,0.695,0.658,��,6.5,��
2020/04/30,00:40,0.696,1.005,0.661,1.216,0.867,0.399,0.694,0.657,��,5.5,��
2020/04/30,00:50,0.696,1.003,0.661,1.212,0.869,0.400,0.695,0.658,��,6.0,��
2020/04/30,01:00,0.696,1.004,0.662,1.212,0.870,0.398,0.696,0.659,��,6.2,��
2020/04/30,01:10,0.697,1.005,0.661,1.214,0.869,0.399,0.695,0.658,��,6.5,��
2020/04/30,01:20,0.696,1.005,0.659,1.213,0.870,0.399,0.696,0.659,��,5.3,��
2020/04/30,01:30,0.697,1.004,0.661,1.212,0.869,0.397,0.694,0.659,��,5.1,��
2020/04/30,01:40,0.694,1.006,0.661,1.214,0.869,0.398,0.694,0.658,��,6.0,��
2020/04/30,01:50,0.694,1.005,0.659,1.212,0.866,0.399,0.695,0.657,��,5.9,��
2020/04/30,02:00,0.696,1.004,0.661,1.214,0.867,0.399,0.695,0.657,��,6.0,��
2020/04/30,02:10,0.696,1.005,0.661,1.214,0.866,0.398,0.694,0.657,��,5.6,��
2020/04/30,02:20,0.694,1.004,0.660,1.213,0.867,0.399,0.695,0.657,���k��,5.2,��
2020/04/30,02:30,0.696,1.003,0.661,1.213,0.865,0.397,0.694,0.655,��,5.0,��
2020/04/30,02:40,0.696,1.004,0.662,1.214,0.869,0.398,0.694,0.659,���k��,5.0,��
2020/04/30,02:50,0.695,1.003,0.659,1.216,0.868,0.398,0.696,0.658,���k��,2.6,��
2020/04/30,03:00,0.696,1.004,0.661,1.214,0.870,0.398,0.697,0.658,���k��,3.6,��
2020/04/30,03:10,0.697,1.004,0.659,1.213,0.869,0.397,0.695,0.659,�k��,1.5,��
2020/04/30,03:20,0.696,1.002,0.659,1.216,0.869,0.398,0.695,0.658,�k,2.6,��
2020/04/30,03:30,0.695,1.003,0.660,1.212,0.868,0.398,0.693,0.657,�k�k��,2.5,��
2020/04/30,03:40,0.694,1.005,0.660,1.212,0.867,0.397,0.695,0.658,�k�k��,3.1,��
2020/04/30,03:50,0.696,1.004,0.661,1.213,0.867,0.399,0.694,0.658,�k,5.2,��
2020/04/30,04:00,0.695,1.002,0.660,1.214,0.869,0.397,0.696,0.659,�k�k��,5.2,��
2020/04/30,04:10,0.695,1.002,0.659,1.212,0.868,0.399,0.696,0.658,�k,4.7,��
2020/04/30,04:20,0.696,1.004,0.660,1.213,0.869,0.399,0.693,0.658,�k,5.0,��
2020/04/30,04:30,0.695,1.004,0.658,1.213,0.867,0.399,0.694,0.659,�k,5.1,��
2020/04/30,04:40,0.694,1.005,0.661,1.212,0.867,0.398,0.694,0.658,�k,4.5,��
2020/04/30,04:50,0.694,1.004,0.659,1.211,0.868,0.398,0.694,0.658,�k,3.8,��
2020/04/30,05:00,0.695,1.004,0.660,1.213,0.868,0.398,0.694,0.658,�k,4.5,��
2020/04/30,05:10,0.692,1.003,0.659,1.215,0.869,0.397,0.694,0.657,�k,3.7,��
2020/04/30,05:20,0.694,1.003,0.660,1.211,0.868,0.397,0.694,0.656,�k,4.0,��
2020/04/30,05:30,0.696,1.002,0.660,1.216,0.869,0.398,0.694,0.657,�k,4.7,��
2020/04/30,05:40,0.693,1.004,0.660,1.213,0.866,0.397,0.694,0.657,�k,4.4,��
2020/04/30,05:50,0.693,1.005,0.660,1.214,0.867,0.398,0.693,0.659,�k�k��,4.0,��
2020/04/30,06:00,0.695,1.005,0.660,1.214,0.869,0.397,0.696,0.658,�k�k��,4.0,��
2020/04/30,06:10,0.693,1.002,0.661,1.214,0.866,0.398,0.694,0.658,�k�k��,3.9,��
2020/04/30,06:20,0.696,1.004,0.660,1.213,0.868,0.398,0.695,0.658,�k��,2.8,��
2020/04/30,06:30,0.696,1.006,0.661,1.214,0.866,0.398,0.693,0.657,�k�k��,3.0,��
2020/04/30,06:40,0.695,1.006,0.660,1.215,0.869,0.397,0.696,0.659,�k�k��,1.9,��
2020/04/30,06:50,0.695,1.005,0.662,1.216,0.869,0.399,0.695,0.658,�k�k��,0.9,��
2020/04/30,07:00,0.695,1.004,0.661,1.212,0.870,0.398,0.694,0.657,�k�k��,0.8,��
2020/04/30,07:10,0.693,1.005,0.661,1.215,0.869,0.397,0.694,0.659,-,CALM,��
2020/04/30,07:20,0.696,1.005,0.661,1.215,0.870,0.397,0.696,0.658,��,0.8,��
2020/04/30,07:30,0.694,1.004,0.661,1.212,0.870,0.397,0.696,0.659,�쓌,1.2,��
2020/04/30,07:40,0.696,1.004,0.660,1.215,0.872,0.396,0.695,0.657,��,0.9,��
2020/04/30,07:50,0.698,1.000,0.662,1.214,0.869,0.394,0.694,0.660,���쓌,2.0,��
2020/04/30,08:00,0.696,1.002,0.662,1.213,0.870,0.395,0.692,0.661,���쓌,2.0,��
2020/04/30,08:10,0.696,1.003,0.662,1.213,0.868,0.396,0.693,0.658,���쓌,2.0,��
2020/04/30,08:20,0.693,1.002,0.661,1.215,0.868,0.395,0.694,0.657,�쓌,2.5,��
2020/04/30,08:30,0.695,1.003,0.662,1.215,0.868,0.396,0.693,0.656,��,2.3,��
2020/04/30,08:40,0.695,1.003,0.662,1.214,0.868,0.396,0.693,0.655,���쓌,3.5,��
2020/04/30,08:50,0.696,1.004,0.662,1.216,0.867,0.396,0.692,0.657,���쓌,3.3,��
2020/04/30,09:00,0.696,1.006,0.659,1.216,0.867,0.397,0.693,0.655,���쓌,3.6,��
2020/04/30,09:10,0.695,1.006,0.660,1.217,0.869,0.397,0.693,0.657,�쓌,3.3,��
2020/04/30,09:20,0.696,1.005,0.660,1.215,0.866,0.396,0.693,0.656,�쓌,4.0,��
2020/04/30,09:30,0.695,1.005,0.661,1.216,0.866,0.397,0.692,0.656,�쓌,4.2,��
2020/04/30,09:40,0.695,1.006,0.659,1.216,0.867,0.396,0.694,0.656,�쓌,4.7,��
2020/04/30,09:50,0.696,1.007,0.659,1.216,0.869,0.397,0.692,0.656,�쓌,4.8,��
2020/04/30,10:00,0.696,1.007,0.660,1.217,0.870,0.395,0.695,0.656,��쓌,5.2,��
2020/04/30,10:10,0.696,1.010,0.660,1.215,0.869,0.398,0.693,0.655,�쓌,5.8,��
2020/04/30,10:20,0.696,1.008,0.660,1.214,0.869,0.397,0.693,0.657,�쓌,5.5,��
2020/04/30,10:30,0.696,1.009,0.658,1.216,0.870,0.399,0.694,0.657,��쓌,5.9,��
2020/04/30,10:40,0.694,1.008,0.659,1.216,0.869,0.398,0.692,0.656,��쓌,6.4,��
2020/04/30,10:50,0.693,1.009,0.659,1.218,0.869,0.398,0.693,0.655,��쓌,6.0,��
2020/04/30,11:00,0.696,1.007,0.659,1.217,0.870,0.398,0.694,0.657,��쓌,6.5,��
2020/04/30,11:10,0.696,1.009,0.659,1.218,0.869,0.398,0.695,0.656,��쓌,8.0,��
2020/04/30,11:20,0.697,1.007,0.660,1.217,0.872,0.398,0.694,0.656,��쓌,8.5,��
2020/04/30,11:30,0.696,1.007,0.660,1.215,0.870,0.399,0.694,0.656,��쓌,8.2,��
2020/04/30,11:40,0.696,1.011,0.661,1.215,0.871,0.398,0.696,0.655,-,CALM,��
2020/04/30,11:50,0.696,1.010,0.660,1.214,0.872,0.398,0.696,0.657,��쓌,9.2,��
2020/04/30,12:00,0.696,1.010,0.660,1.215,0.870,0.400,0.695,0.656,��쓌,9.0,��
2020/04/30,12:10,0.698,1.012,0.661,1.214,0.870,0.399,0.696,0.657,��쓌,8.6,��
2020/04/30,12:20,0.699,1.009,0.661,1.214,0.872,0.399,0.694,0.656,��쓌,9.0,��
2020/04/30,12:30,0.697,1.010,0.661,1.213,0.873,0.398,0.696,0.657,��쓌,9.4,��
2020/04/30,12:40,0.697,1.011,0.662,1.216,0.874,0.399,0.696,0.657,��쓌,9.7,��
2020/04/30,12:50,0.697,1.011,0.661,1.217,0.870,0.400,0.696,0.657,��쓌,9.5,��
2020/04/30,13:00,0.697,1.011,0.661,1.217,0.870,0.401,0.696,0.656,��쓌,9.3,��
2020/04/30,13:10,0.699,1.010,0.660,1.218,0.872,0.400,0.695,0.658,��쓌,10.0,��
2020/04/30,13:20,0.698,1.012,0.660,1.218,0.873,0.401,0.696,0.657,��쓌,10.3,��
2020/04/30,13:30,0.699,1.010,0.661,1.220,0.873,0.400,0.696,0.658,��쓌,8.7,��
2020/04/30,13:40,0.699,1.009,0.661,1.221,0.873,0.400,0.696,0.657,�쓌,9.0,��
2020/04/30,13:50,0.697,1.011,0.663,1.219,0.873,0.401,0.696,0.657,�쓌,9.7,��
2020/04/30,14:00,0.699,1.013,0.662,1.219,0.874,0.402,0.696,0.657,�쓌,9.6,��
2020/04/30,14:10,0.698,1.012,0.663,1.219,0.874,0.400,0.695,0.656,��쓌,10.7,��
2020/04/30,14:20,0.698,1.012,0.662,1.218,0.875,0.401,0.695,0.657,��쓌,10.5,��
2020/04/30,14:30,0.699,1.015,0.663,1.218,0.875,0.400,0.696,0.657,��쓌,10.8,��
2020/04/30,14:40,0.698,1.013,0.660,1.216,0.874,0.402,0.696,0.656,�쓌,8.1,��
2020/04/30,14:50,0.698,1.014,0.662,1.217,0.875,0.401,0.696,0.656,��쓌,7.2,��
2020/04/30,15:00,0.698,1.012,0.663,1.215,0.876,0.401,0.696,0.657,��쓌,9.5,��
2020/04/30,15:10,0.698,1.011,0.662,1.215,0.876,0.401,0.696,0.657,��쓌,8.7,��
2020/04/30,15:20,0.700,1.014,0.663,1.217,0.877,0.400,0.695,0.658,�쓌,8.6,��
2020/04/30,15:30,0.699,1.014,0.662,1.217,0.875,0.400,0.697,0.657,��쓌,8.8,��
2020/04/30,15:40,0.700,1.012,0.664,1.217,0.876,0.402,0.696,0.657,��쓌,8.4,��
2020/04/30,15:50,0.699,1.012,0.663,1.216,0.877,0.400,0.696,0.658,��쓌,7.6,��
2020/04/30,16:00,0.698,1.012,0.662,1.217,0.876,0.400,0.695,0.658,�쓌,6.3,��
2020/04/30,16:10,0.698,1.012,0.663,1.215,0.874,0.399,0.694,0.656,��쓌,5.9,��
2020/04/30,16:20,0.696,1.012,0.663,1.216,0.876,0.400,0.696,0.656,��쓌,5.9,��
2020/04/30,16:30,0.697,1.010,0.662,1.218,0.874,0.402,0.697,0.657,��쓌,5.1,��
2020/04/30,16:40,0.696,1.014,0.663,1.219,0.874,0.401,0.695,0.657,��쓌,4.2,��
2020/04/30,16:50,0.699,1.015,0.662,1.219,0.874,0.401,0.695,0.658,��쓌,4.5,��
2020/04/30,17:00,0.699,1.016,0.662,1.217,0.874,0.400,0.693,0.656,��쓌,3.8,��
2020/04/30,17:10,0.697,1.015,0.661,1.219,0.874,0.402,0.696,0.658,��쓌,4.8,��
2020/04/30,17:20,0.697,1.017,0.663,1.217,0.874,0.401,0.695,0.659,��쓌,5.6,��
2020/04/30,17:30,0.699,1.017,0.663,1.216,0.876,0.400,0.696,0.659,��쓌,6.8,��
2020/04/30,17:40,0.698,1.015,0.661,1.217,0.877,0.400,0.695,0.658,��쓌,6.2,��
2020/04/30,17:50,0.699,1.019,0.663,1.219,0.872,0.402,0.695,0.660,��쓌,7.7,��
2020/04/30,18:00,0.699,1.015,0.663,1.220,0.874,0.401,0.694,0.659,��쓌,6.9,��
2020/04/30,18:10,0.700,1.015,0.662,1.220,0.873,0.401,0.694,0.659,��,8.2,��
2020/04/30,18:20,0.702,1.015,0.662,1.220,0.875,0.402,0.695,0.659,��,8.4,��
2020/04/30,18:30,0.703,1.017,0.662,1.222,0.872,0.402,0.694,0.662,��,8.7,��
2020/04/30,18:40,0.702,1.018,0.663,1.223,0.873,0.402,0.696,0.661,��,8.6,��
2020/04/30,18:50,0.703,1.016,0.666,1.222,0.875,0.402,0.697,0.660,��,8.3,��
2020/04/30,19:00,0.700,1.017,0.667,1.221,0.875,0.403,0.698,0.661,��,7.3,��
2020/04/30,19:10,0.702,1.014,0.666,1.221,0.875,0.402,0.697,0.660,��,6.6,��
2020/04/30,19:20,0.701,1.014,0.665,1.222,0.878,0.403,0.696,0.660,��,6.5,��
2020/04/30,19:30,0.701,1.014,0.663,1.222,0.877,0.404,0.696,0.661,��,6.4,��
2020/04/30,19:40,0.700,1.016,0.665,1.221,0.878,0.403,0.697,0.659,��,6.8,��
2020/04/30,19:50,0.701,1.016,0.664,1.221,0.878,0.403,0.697,0.661,��,7.2,��
2020/04/30,20:00,0.701,1.015,0.664,1.220,0.875,0.404,0.697,0.659,��,6.9,��
2020/04/30,20:10,0.699,1.013,0.666,1.218,0.878,0.402,0.697,0.659,��쐼,7.3,��
2020/04/30,20:20,0.702,1.015,0.668,1.220,0.876,0.401,0.698,0.660,��쐼,6.6,��
2020/04/30,20:30,0.702,1.014,0.665,1.220,0.874,0.403,0.698,0.660,��,5.8,��
2020/04/30,20:40,0.701,1.016,0.664,1.220,0.877,0.402,0.696,0.661,��,5.4,��
2020/04/30,20:50,0.701,1.012,0.663,1.219,0.876,0.403,0.697,0.660,��,3.8,��
2020/04/30,21:00,0.700,1.015,0.664,1.221,0.874,0.403,0.695,0.659,��쓌,3.7,��
2020/04/30,21:10,0.701,1.010,0.664,1.218,0.874,0.403,0.697,0.660,��쓌,3.9,��
2020/04/30,21:20,0.699,1.015,0.662,1.222,0.876,0.402,0.697,0.660,��,4.4,��
2020/04/30,21:30,0.701,1.014,0.665,1.220,0.875,0.403,0.698,0.660,��,4.2,��
2020/04/30,21:40,0.701,1.012,0.663,1.221,0.877,0.402,0.697,0.660,��쐼,4.1,��
2020/04/30,21:50,0.699,1.014,0.666,1.219,0.876,0.401,0.697,0.660,��쐼,4.0,��
2020/04/30,22:00,0.700,1.015,0.664,1.219,0.875,0.402,0.696,0.660,��쐼,5.3,��
2020/04/30,22:10,0.700,1.014,0.665,1.222,0.875,0.402,0.697,0.660,��쐼,4.8,��
2020/04/30,22:20,0.700,1.015,0.665,1.219,0.874,0.403,0.699,0.660,��쐼,3.7,��
2020/04/30,22:30,0.701,1.012,0.663,1.221,0.876,0.402,0.698,0.660,��쐼,4.1,��
2020/04/30,22:40,0.698,1.014,0.663,1.219,0.874,0.402,0.696,0.659,��쐼,4.0,��
2020/04/30,22:50,0.701,1.012,0.663,1.220,0.875,0.401,0.698,0.659,��쐼,4.7,��
2020/04/30,23:00,0.700,1.012,0.665,1.219,0.873,0.401,0.698,0.661,�쐼,2.8,��
2020/04/30,23:10,0.700,1.013,0.664,1.221,0.875,0.402,0.697,0.661,��쐼,4.1,��
2020/04/30,23:20,0.699,1.012,0.665,1.219,0.875,0.402,0.697,0.662,��쐼,3.9,��
2020/04/30,23:30,0.700,1.012,0.665,1.221,0.875,0.402,0.698,0.659,��쐼,2.6,��
2020/04/30,23:40,0.700,1.013,0.665,1.220,0.876,0.403,0.697,0.659,��,1.7,��
2020/04/30,23:50,0.700,1.012,0.664,1.221,0.875,0.402,0.697,0.659,��,2.9,��
